| time (UTC) | temp F | wind direction | speed MPH | gust MPH | rain 1hr in | rain 24hr in | rain mn in | humidity % | barometer mb |
| 20260508110045 | 59 | 209 | 3.0 | 6.0 | 0.00 | 0.02 | 0.02 | 72 | 1014.4 |
| 20260508104554 | 60 | 221 | 1.0 | 4.0 | 0.00 | 0.02 | 0.02 | 71 | 1014.3 |
| 20260508103045 | 60 | 235 | 3.0 | 7.0 | 0.00 | 0.02 | 0.02 | 71 | 1014.4 |
| 20260508101545 | 59 | 245 | 1.0 | 6.0 | 0.00 | 0.02 | 0.02 | 75 | 1014.4 |
| 20260508100041 | 58 | 169 | 1.0 | 4.0 | 0.00 | 0.02 | 0.02 | 76 | 1014.3 |
| 20260508094538 | 58 | 196 | 2.0 | 6.0 | 0.00 | 0.02 | 0.02 | 75 | 1014.2 |
| 20260508093036 | 58 | 190 | 1.0 | 6.0 | 0.00 | 0.02 | 0.02 | 77 | 1014.1 |
| 20260508091533 | 57 | 210 | 1.0 | 7.0 | 0.00 | 0.02 | 0.02 | 83 | 1014.2 |
| 20260508090038 | 57 | 212 | 0.0 | 5.0 | 0.00 | 0.02 | 0.02 | 87 | 1014.0 |
| 20260508084527 | 55 | 73 | 0.0 | 3.0 | 0.00 | 0.02 | 0.02 | 93 | 1014.0 |
| 20260508083025 | 54 | 330 | 0.0 | 1.0 | 0.00 | 0.02 | 0.02 | 95 | 1013.9 |
| 20260508081523 | 54 | 89 | 0.0 | 1.0 | 0.00 | 0.02 | 0.02 | 96 | 1013.9 |
| 20260508080018 | 52 | 304 | 0.0 | 1.0 | 0.00 | 0.02 | 0.02 | 97 | 1013.9 |
| 20260508074518 | 51 | 221 | 0.0 | 1.0 | 0.00 | 0.02 | 0.02 | 97 | 1014.0 |
| 20260508073016 | 51 | 221 | 0.0 | 1.0 | 0.00 | 0.02 | 0.02 | 97 | 1014.0 |
| 20260508071514 | 51 | 250 | 0.0 | 1.0 | 0.00 | 0.02 | 0.02 | 97 | 1013.9 |
| 20260508070013 | 51 | 151 | 0.0 | 0.0 | 0.00 | 0.02 | 0.02 | 97 | 1013.6 |
| 20260508064542 | 50 | 151 | 0.0 | 0.0 | 0.00 | 0.02 | 0.02 | 97 | 1013.5 |
| 20260508063016 | 50 | 168 | 0.0 | 0.0 | 0.01 | 0.02 | 0.02 | 96 | 1013.3 |
| 20260508061512 | 50 | 219 | 0.0 | 0.0 | 0.02 | 0.02 | 0.02 | 96 | 1013.0 |
| 20260508060010 | 50 | 219 | 0.0 | 1.0 | 0.02 | 0.02 | 0.02 | 96 | 1013.2 |
| 20260508054512 | 50 | 222 | 0.0 | 1.0 | 0.02 | 0.02 | 0.02 | 96 | 1013.4 |
| 20260508053009 | 50 | 324 | 0.0 | 0.0 | 0.02 | 0.02 | 0.02 | 96 | 1012.7 |
| 20260508051511 | 50 | 324 | 0.0 | 0.0 | 0.01 | 0.01 | 0.01 | 96 | 1013.1 |
| 20260508050013 | 50 | 321 | 0.0 | 2.0 | 0.01 | 0.01 | 0.01 | 96 | 1012.9 |
| 20260508044505 | 50 | 194 | 0.0 | 4.0 | 0.00 | 0.00 | 0.00 | 96 | 1013.2 |
| 20260508043004 | 50 | 93 | 0.0 | 1.0 | 0.00 | 0.00 | 0.00 | 96 | 1013.1 |
| 20260508041504 | 49 | 250 | 0.0 | 1.0 | 0.00 | 0.00 | 0.00 | 96 | 1012.6 |
| 20260508040001 | 49 | 250 | 0.0 | 0.0 | 0.00 | 0.00 | 0.00 | 96 | 1012.9 |
| 20260508034501 | 49 | 250 | 0.0 | 0.0 | 0.00 | 0.00 | 0.00 | 96 | 1012.8 |
| 20260508033100 | 49 | 250 | 0.0 | 0.0 | 0.00 | 0.00 | 0.00 | 95 | 1012.8 |
| 20260508031607 | 50 | 250 | 0.0 | 1.0 | 0.00 | 0.00 | 0.00 | 96 | 1012.7 |
| 20260508030106 | 50 | 250 | 0.0 | 0.0 | 0.00 | 0.00 | 0.00 | 95 | 1012.9 |
| 20260508024557 | 50 | 250 | 0.0 | 1.0 | 0.00 | 0.00 | 0.00 | 95 | 1013.0 |
| 20260508023056 | 50 | 250 | 0.0 | 1.0 | 0.00 | 0.00 | 0.00 | 95 | 1013.2 |
| 20260508021603 | 50 | 250 | 0.0 | 0.0 | 0.00 | 0.00 | 0.00 | 96 | 1013.2 |
| 20260508020053 | 50 | 250 | 0.0 | 0.0 | 0.00 | 0.00 | 0.00 | 95 | 1013.4 |
| 20260508014551 | 49 | 250 | 0.0 | 1.0 | 0.00 | 0.00 | 0.00 | 95 | 1013.6 |
| 20260508013048 | 49 | 250 | 0.0 | 0.0 | 0.00 | 0.00 | 0.00 | 95 | 1013.8 |
| 20260508011551 | 49 | 250 | 0.0 | 0.0 | 0.00 | 0.00 | 0.00 | 94 | 1014.0 |
| 20260508010044 | 49 | 250 | 0.0 | 0.0 | 0.00 | 0.00 | 0.00 | 94 | 1014.1 |
| 20260508004544 | 49 | 250 | 0.0 | 0.0 | 0.00 | 0.00 | 0.00 | 94 | 1014.0 |
| 20260508003043 | 49 | 248 | 0.0 | 1.0 | 0.00 | 0.00 | 0.00 | 93 | 1014.2 |
| 20260508001541 | 49 | 251 | 0.0 | 0.0 | 0.00 | 0.00 | 0.00 | 93 | 1014.2 |
| 20260508000052 | 50 | 251 | 0.0 | 0.0 | 0.00 | 0.00 | 0.00 | 92 | 1014.3 |
| 20260507234543 | 50 | 251 | 0.0 | 0.0 | 0.00 | 0.00 | 0.00 | 92 | 1014.5 |
| 20260507233036 | 50 | 251 | 0.0 | 1.0 | 0.00 | 0.00 | 0.00 | 92 | 1014.6 |
| 20260507231537 | 51 | 248 | 0.0 | 0.0 | 0.00 | 0.00 | 0.00 | 91 | 1014.7 |
| 20260507230029 | 51 | 248 | 0.0 | 2.0 | 0.00 | 0.00 | 0.00 | 91 | 1014.7 |
| 20260507224530 | 51 | 248 | 0.0 | 0.0 | 0.00 | 0.00 | 0.00 | 90 | 1014.8 |
| 20260507223029 | 52 | 249 | 0.0 | 1.0 | 0.00 | 0.00 | 0.00 | 91 | 1015.2 |
| 20260507221530 | 51 | 103 | 0.0 | 0.0 | 0.00 | 0.00 | 0.00 | 91 | 1015.3 |
| 20260507220027 | 52 | 103 | 0.0 | 1.0 | 0.00 | 0.00 | 0.00 | 90 | 1015.3 |
| 20260507214530 | 52 | 98 | 0.0 | 1.0 | 0.00 | 0.00 | 0.00 | 89 | 1015.6 |
| 20260507213027 | 52 | 99 | 0.0 | 0.0 | 0.00 | 0.00 | 0.00 | 87 | 1015.7 |
| 20260507211533 | 53 | 99 | 0.0 | 1.0 | 0.00 | 0.00 | 0.00 | 85 | 1015.7 |
| 20260507210025 | 54 | 99 | 0.0 | 1.0 | 0.00 | 0.00 | 0.00 | 84 | 1015.7 |
| 20260507204525 | 54 | 99 | 0.0 | 2.0 | 0.00 | 0.00 | 0.00 | 84 | 1015.7 |
| 20260507203025 | 54 | 93 | 0.0 | 0.0 | 0.00 | 0.00 | 0.00 | 82 | 1015.6 |
| 20260507201524 | 55 | 93 | 0.0 | 1.0 | 0.00 | 0.00 | 0.00 | 81 | 1015.2 |
| 20260507200024 | 55 | 216 | 0.0 | 4.0 | 0.00 | 0.00 | 0.00 | 80 | 1015.0 |
| 20260507194523 | 56 | 238 | 0.0 | 5.0 | 0.00 | 0.00 | 0.00 | 80 | 1014.8 |
| 20260507193023 | 56 | 235 | 1.0 | 4.0 | 0.00 | 0.00 | 0.00 | 78 | 1014.7 |
| 20260507191527 | 57 | 260 | 2.0 | 5.0 | 0.00 | 0.00 | 0.00 | 76 | 1014.4 |
| 20260507190021 | 58 | 229 | 0.0 | 5.0 | 0.00 | 0.00 | 0.00 | 73 | 1014.3 |
| 20260507184521 | 59 | 255 | 1.0 | 9.0 | 0.00 | 0.00 | 0.00 | 70 | 1014.0 |
| 20260507183020 | 59 | 240 | 0.0 | 7.0 | 0.00 | 0.00 | 0.00 | 71 | 1013.9 |
| 20260507181519 | 60 | 220 | 3.0 | 6.0 | 0.00 | 0.00 | 0.00 | 69 | 1013.9 |
| 20260507180118 | 61 | 205 | 1.0 | 8.0 | 0.00 | 0.00 | 0.00 | 67 | 1013.8 |
| 20260507174538 | 62 | 227 | 3.0 | 8.0 | 0.00 | 0.00 | 0.00 | 64 | 1013.7 |
| 20260507173022 | 63 | 275 | 4.0 | 10.0 | 0.00 | 0.00 | 0.00 | 65 | 1013.7 |
| 20260507171519 | 63 | 259 | 2.0 | 9.0 | 0.00 | 0.00 | 0.00 | 56 | 1013.6 |
| 20260507170015 | 63 | 229 | 6.0 | 13.0 | 0.00 | 0.00 | 0.00 | 57 | 1013.6 |
| 20260507164514 | 64 | 212 | 4.0 | 12.0 | 0.00 | 0.00 | 0.00 | 62 | 1013.7 |
| 20260507163020 | 64 | 214 | 6.0 | 13.0 | 0.00 | 0.00 | 0.00 | 63 | 1013.6 |
| 20260507161516 | 65 | 238 | 6.0 | 12.0 | 0.00 | 0.00 | 0.00 | 61 | 1013.3 |
| 20260507160015 | 66 | 224 | 5.0 | 13.0 | 0.00 | 0.00 | 0.00 | 61 | 1013.2 |
| 20260507154517 | 66 | 260 | 6.0 | 13.0 | 0.00 | 0.00 | 0.00 | 60 | 1013.2 |
| 20260507153017 | 66 | 189 | 4.0 | 12.0 | 0.00 | 0.00 | 0.00 | 59 | 1013.1 |
| 20260507151510 | 66 | 217 | 5.0 | 11.0 | 0.00 | 0.00 | 0.00 | 61 | 1013.2 |
| 20260507150006 | 66 | 252 | 4.0 | 9.0 | 0.00 | 0.00 | 0.00 | 60 | 1013.4 |
| 20260507144506 | 66 | 219 | 4.0 | 12.0 | 0.00 | 0.00 | 0.00 | 59 | 1013.5 |
| 20260507143006 | 65 | 275 | 5.0 | 12.0 | 0.00 | 0.00 | 0.00 | 64 | 1013.6 |
| 20260507141503 | 67 | 249 | 4.0 | 11.0 | 0.00 | 0.00 | 0.00 | 64 | 1013.7 |
| 20260507140114 | 65 | 226 | 5.0 | 12.0 | 0.00 | 0.00 | 0.00 | 64 | 1013.7 |
| 20260507134610 | 66 | 283 | 3.0 | 11.0 | 0.00 | 0.00 | 0.00 | 62 | 1013.7 |
| 20260507133105 | 66 | 266 | 5.0 | 10.0 | 0.00 | 0.00 | 0.00 | 63 | 1013.8 |
| 20260507131658 | 66 | 248 | 4.0 | 10.0 | 0.00 | 0.00 | 0.00 | 64 | 1013.9 |
| 20260507130100 | 65 | 243 | 3.0 | 8.0 | 0.00 | 0.00 | 0.00 | 65 | 1013.8 |
| 20260507124600 | 64 | 268 | 3.0 | 10.0 | 0.00 | 0.00 | 0.00 | 68 | 1014.1 |
| 20260507123054 | 65 | 255 | 4.0 | 10.0 | 0.00 | 0.00 | 0.00 | 67 | 1014.1 |
| 20260507121550 | 65 | 207 | 3.0 | 10.0 | 0.00 | 0.00 | 0.00 | 67 | 1014.3 |
| 20260507120049 | 63 | 215 | 6.0 | 12.0 | 0.00 | 0.00 | 0.00 | 70 | 1014.4 |
| 20260507114548 | 64 | 229 | 5.0 | 9.0 | 0.00 | 0.00 | 0.00 | 65 | 1014.3 |
| 20260507113107 | 67 | 240 | 3.0 | 10.0 | 0.00 | 0.00 | 0.00 | 63 | 1014.2 |
| 20260507111545 | 66 | 191 | 0.0 | 7.0 | 0.00 | 0.00 | 0.00 | 60 | 1014.2 |